Time,TemperatureF,DewpointF,PressureIn,WindDirection,WindDirectionDegrees,WindSpeedMPH,WindSpeedGustMPH,Humidity,HourlyPrecipIn,Conditions,Clouds,dailyrainin,SolarRadiationWatts/m^2,SoftwareType,DateUTC
2013-04-13 00:00:00,39.0,36.0,29.72,NNW,338,3.0,28.0,89,0.00,,,0.00,0000,Weather View 32 v70,2013-04-13 04:00:00,
2013-04-13 00:05:00,39.1,36.1,29.72,North,0,5.0,28.0,89,0.00,,,0.00,0000,Weather View 32 v70,2013-04-13 04:05:00,
2013-04-13 00:10:00,39.1,36.1,29.73,NNW,338,5.0,28.0,89,0.00,,,0.00,0008,Weather View 32 v70,2013-04-13 04:10:00,
2013-04-13 00:15:00,39.1,36.1,29.72,NNE,23,5.0,28.0,89,0.00,,,0.00,0000,Weather View 32 v70,2013-04-13 04:15:00,
2013-04-13 00:20:00,39.0,36.0,29.71,NE,45,1.0,28.0,89,0.00,,,0.00,0000,Weather View 32 v70,2013-04-13 04:20:00,
2013-04-13 00:25:00,39.1,36.1,29.72,NNE,23,1.0,28.0,89,0.00,,,0.00,0000,Weather View 32 v70,2013-04-13 04:25:00,
2013-04-13 00:32:00,39.1,36.1,29.71,NE,45,2.0,28.0,89,0.00,,,0.00,0000,Weather View 32 v70,2013-04-13 04:32:00,
2013-04-13 00:40:00,39.0,35.7,29.71,North,0,5.0,28.0,88,0.00,,,0.00,0000,Weather View 32 v70,2013-04-13 04:40:00,
2013-04-13 00:50:00,39.1,35.9,29.71,NE,45,2.0,28.0,88,0.00,,,0.00,0000,Weather View 32 v70,2013-04-13 04:50:00,
2013-04-13 00:55:00,39.1,35.9,29.71,NNE,23,7.0,28.0,88,0.00,,,0.00,0000,Weather View 32 v70,2013-04-13 04:55:00,
2013-04-13 01:05:00,39.1,35.9,29.71,NE,45,1.0,14.0,88,0.00,,,0.00,0000,Weather View 32 v70,2013-04-13 05:05:00,
2013-04-13 01:10:00,39.1,35.9,29.71,North,0,8.0,14.0,88,0.00,,,0.00,0000,Weather View 32 v70,2013-04-13 05:10:00,
2013-04-13 01:15:00,39.1,35.6,29.71,North,0,9.0,14.0,87,0.00,,,0.00,0000,Weather View 32 v70,2013-04-13 05:15:00,
2013-04-13 01:20:00,39.1,35.6,29.71,SSE,158,0.0,14.0,87,0.00,,,0.00,0008,Weather View 32 v70,2013-04-13 05:20:00,
2013-04-13 01:25:00,39.1,35.6,29.71,NNE,23,8.0,14.0,87,0.00,,,0.00,0008,Weather View 32 v70,2013-04-13 05:25:00,
2013-04-13 01:30:00,39.1,35.6,29.71,North,0,7.0,15.0,87,0.00,,,0.00,0000,Weather View 32 v70,2013-04-13 05:30:00,
2013-04-13 01:40:00,39.0,35.5,29.71,NNE,23,5.0,15.0,87,0.00,,,0.00,0000,Weather View 32 v70,2013-04-13 05:40:00,
2013-04-13 01:45:00,39.1,35.6,29.71,NNW,338,1.0,15.0,87,0.00,,,0.00,0000,Weather View 32 v70,2013-04-13 05:45:00,
2013-04-13 01:55:00,39.0,35.5,29.72,NNW,338,3.0,23.0,87,0.00,,,0.00,0000,Weather View 32 v70,2013-04-13 05:55:00,
2013-04-13 02:00:00,39.0,35.5,29.72,NNW,338,5.0,23.0,87,0.00,,,0.00,0008,Weather View 32 v70,2013-04-13 06:00:00,
2013-04-13 02:05:00,39.1,35.3,29.73,NNW,338,0.0,23.0,86,0.00,,,0.00,0000,Weather View 32 v70,2013-04-13 06:05:00,
2013-04-13 02:15:00,39.0,35.2,29.72,North,0,3.0,23.0,86,0.00,,,0.00,0000,Weather View 32 v70,2013-04-13 06:15:00,
2013-04-13 02:25:00,38.9,35.3,29.74,NNW,338,6.0,23.0,87,0.00,,,0.00,0000,Weather View 32 v70,2013-04-13 06:25:00,
2013-04-13 02:30:00,38.9,35.3,29.73,North,0,3.0,23.0,87,0.00,,,0.00,0000,Weather View 32 v70,2013-04-13 06:30:00,
2013-04-13 02:40:00,38.7,35.1,29.72,NNE,23,2.0,23.0,87,0.00,,,0.00,0000,Weather View 32 v70,2013-04-13 06:40:00,
2013-04-13 02:45:00,38.7,35.4,29.72,NNW,338,0.0,23.0,88,0.00,,,0.00,0000,Weather View 32 v70,2013-04-13 06:45:00,
2013-04-13 02:55:00,38.6,35.3,29.72,NE,45,3.0,21.0,88,0.00,,,0.00,0000,Weather View 32 v70,2013-04-13 06:55:00,
2013-04-13 03:05:00,38.4,35.2,29.70,NNE,23,6.0,21.0,88,0.00,,,0.00,0000,Weather View 32 v70,2013-04-13 07:05:00,
2013-04-13 03:15:00,38.3,34.8,29.70,ENE,68,0.0,14.0,87,0.00,,,0.00,0000,Weather View 32 v70,2013-04-13 07:15:00,
2013-04-13 03:20:00,38.3,34.8,29.70,East,90,5.0,14.0,87,0.00,,,0.00,0000,Weather View 32 v70,2013-04-13 07:20:00,
2013-04-13 03:25:00,38.2,34.7,29.68,NNE,23,3.0,14.0,87,0.00,,,0.00,0008,Weather View 32 v70,2013-04-13 07:25:00,
2013-04-13 03:30:00,38.3,34.8,29.68,NNE,23,5.0,15.0,87,0.00,,,0.00,0008,Weather View 32 v70,2013-04-13 07:30:00,
2013-04-13 03:40:00,38.3,34.8,29.68,NNE,23,3.0,15.0,87,0.00,,,0.00,0000,Weather View 32 v70,2013-04-13 07:40:00,
2013-04-13 03:45:00,38.2,34.7,29.69,NE,45,3.0,15.0,87,0.00,,,0.00,0000,Weather View 32 v70,2013-04-13 07:45:00,
2013-04-13 03:55:00,38.1,34.9,29.70,NE,45,5.0,15.0,88,0.01,,,0.01,0000,Weather View 32 v70,2013-04-13 07:55:00,
2013-04-13 04:10:00,38.0,34.8,29.72,NW,315,0.0,15.0,88,0.01,,,0.01,0008,Weather View 32 v70,2013-04-13 08:10:00,
2013-04-13 04:25:00,38.0,34.5,29.74,NNE,23,0.0,15.0,87,0.01,,,0.01,0008,Weather View 32 v70,2013-04-13 08:25:00,
2013-04-13 04:30:00,37.9,34.3,29.73,NNW,338,2.0,15.0,87,0.01,,,0.01,0000,Weather View 32 v70,2013-04-13 08:30:00,
2013-04-13 04:35:00,38.0,34.5,29.73,NW,315,1.0,15.0,87,0.01,,,0.01,0000,Weather View 32 v70,2013-04-13 08:35:00,
2013-04-13 04:40:00,37.9,34.3,29.73,NNW,338,4.0,15.0,87,0.01,,,0.01,0000,Weather View 32 v70,2013-04-13 08:40:00,
2013-04-13 04:50:00,38.0,34.5,29.74,NNW,338,1.0,15.0,87,0.00,,,0.01,0000,Weather View 32 v70,2013-04-13 08:50:00,
2013-04-13 04:55:00,37.9,34.3,29.74,North,0,3.0,15.0,87,0.00,,,0.01,0008,Weather View 32 v70,2013-04-13 08:55:00,
2013-04-13 05:05:00,37.9,34.1,29.74,WNW,293,2.0,15.0,86,0.00,,,0.01,0000,Weather View 32 v70,2013-04-13 09:05:00,
2013-04-13 05:10:00,37.9,34.1,29.75,North,0,4.0,15.0,86,0.00,,,0.01,0000,Weather View 32 v70,2013-04-13 09:10:00,
2013-04-13 05:20:00,37.9,33.8,29.75,NNW,338,2.0,15.0,85,0.00,,,0.01,0008,Weather View 32 v70,2013-04-13 09:20:00,
2013-04-13 05:25:00,37.9,33.8,29.75,NNW,338,0.0,15.0,85,0.00,,,0.01,0000,Weather View 32 v70,2013-04-13 09:25:00,
2013-04-13 05:30:00,37.8,33.7,29.76,NNE,23,2.0,15.0,85,0.00,,,0.01,0000,Weather View 32 v70,2013-04-13 09:30:00,
2013-04-13 05:35:00,37.8,33.7,29.76,NNE,23,3.0,15.0,85,0.00,,,0.01,0000,Weather View 32 v70,2013-04-13 09:35:00,
2013-04-13 05:55:00,37.8,33.4,29.77,NNW,338,6.0,15.0,84,0.00,,,0.01,0000,Weather View 32 v70,2013-04-13 09:55:00,
2013-04-13 06:00:00,37.8,33.7,29.77,NNW,338,0.0,12.0,85,0.00,,,0.01,0000,Weather View 32 v70,2013-04-13 10:00:00,
2013-04-13 06:05:00,37.7,33.2,29.78,North,0,0.0,11.0,84,0.00,,,0.01,0000,Weather View 32 v70,2013-04-13 10:05:00,
2013-04-13 06:15:00,37.7,33.2,29.78,NNW,338,2.0,12.0,84,0.00,,,0.01,0000,Weather View 32 v70,2013-04-13 10:15:00,
2013-04-13 06:20:00,37.7,33.2,29.79,NNE,23,1.0,12.0,84,0.00,,,0.01,0000,Weather View 32 v70,2013-04-13 10:20:00,
2013-04-13 06:25:00,37.7,33.2,29.80,North,0,0.0,12.0,84,0.00,,,0.01,0000,Weather View 32 v70,2013-04-13 10:25:00,
2013-04-13 06:35:00,37.7,33.5,29.80,NNE,23,5.0,12.0,85,0.00,,,0.01,0000,Weather View 32 v70,2013-04-13 10:35:00,
2013-04-13 06:40:00,37.5,33.1,29.80,North,0,1.0,12.0,84,0.00,,,0.01,0000,Weather View 32 v70,2013-04-13 10:40:00,
2013-04-13 06:50:00,37.5,33.1,29.80,North,0,4.0,12.0,84,0.00,,,0.01,0016,Weather View 32 v70,2013-04-13 10:50:00,
2013-04-13 07:00:00,37.7,33.2,29.80,NW,315,0.0,12.0,84,0.00,,,0.01,0008,Weather View 32 v70,2013-04-13 11:00:00,
2013-04-13 07:05:00,37.7,33.2,29.79,NNW,338,0.0,12.0,84,0.00,,,0.01,0000,Weather View 32 v70,2013-04-13 11:05:00,
2013-04-13 07:15:00,37.5,33.1,29.79,North,0,0.0,17.0,84,0.00,,,0.01,0008,Weather View 32 v70,2013-04-13 11:15:00,
2013-04-13 07:20:00,37.5,33.1,29.80,WNW,293,7.0,17.0,84,0.00,,,0.01,0024,Weather View 32 v70,2013-04-13 11:20:00,
2013-04-13 07:30:00,37.5,33.1,29.80,NNW,338,3.0,17.0,84,0.00,,,0.01,0016,Weather View 32 v70,2013-04-13 11:30:00,
2013-04-13 07:35:00,37.7,33.2,29.81,East,90,1.0,17.0,84,0.00,,,0.01,0032,Weather View 32 v70,2013-04-13 11:35:00,
2013-04-13 07:40:00,37.7,33.2,29.81,NNE,23,1.0,17.0,84,0.00,,,0.01,0016,Weather View 32 v70,2013-04-13 11:40:00,
2013-04-13 07:45:00,37.5,33.1,29.81,North,0,1.0,17.0,84,0.00,,,0.01,0016,Weather View 32 v70,2013-04-13 11:45:00,
2013-04-13 07:55:00,37.8,33.4,29.82,NNW,338,0.0,17.0,84,0.00,,,0.01,0032,Weather View 32 v70,2013-04-13 11:55:00,
2013-04-13 08:00:00,37.8,33.4,29.82,NNE,23,3.0,17.0,84,0.00,,,0.01,0048,Weather View 32 v70,2013-04-13 12:00:00,
2013-04-13 08:10:00,37.9,33.2,29.82,North,0,2.0,17.0,83,0.00,,,0.01,0048,Weather View 32 v70,2013-04-13 12:10:00,
2013-04-13 08:15:00,37.9,33.2,29.82,North,0,3.0,11.0,83,0.00,,,0.01,0064,Weather View 32 v70,2013-04-13 12:15:00,
2013-04-13 08:25:00,38.0,33.3,29.83,NNW,338,3.0,9.0,83,0.00,,,0.01,0064,Weather View 32 v70,2013-04-13 12:25:00,
2013-04-13 08:35:00,38.3,33.9,29.83,NNW,338,3.0,9.0,84,0.00,,,0.01,0096,Weather View 32 v70,2013-04-13 12:35:00,
2013-04-13 08:55:00,38.6,33.8,29.84,North,0,6.0,9.0,83,0.00,,,0.01,0136,Weather View 32 v70,2013-04-13 12:55:00,
2013-04-13 09:05:00,38.6,33.5,29.84,North,0,0.0,9.0,82,0.00,,,0.01,0120,Weather View 32 v70,2013-04-13 13:05:00,
2013-04-13 09:15:00,38.9,33.6,29.84,NNE,23,2.0,9.0,81,0.00,,,0.01,0144,Weather View 32 v70,2013-04-13 13:15:00,
2013-04-13 09:25:00,39.1,33.8,29.84,NNE,23,0.0,9.0,81,0.00,,,0.01,0248,Weather View 32 v70,2013-04-13 13:25:00,
2013-04-13 09:35:00,39.8,34.1,29.84,NNE,23,0.0,9.0,80,0.00,,,0.01,0224,Weather View 32 v70,2013-04-13 13:35:00,
2013-04-13 09:40:00,40.1,34.4,29.84,North,0,0.0,9.0,80,0.00,,,0.01,0208,Weather View 32 v70,2013-04-13 13:40:00,
2013-04-13 09:45:00,40.4,34.3,29.84,North,0,0.0,9.0,79,0.00,,,0.01,0200,Weather View 32 v70,2013-04-13 13:45:00,
2013-04-13 09:55:00,40.8,34.5,29.85,North,0,0.0,9.0,78,0.00,,,0.01,0624,Weather View 32 v70,2013-04-13 13:55:00,
2013-04-13 10:00:00,42.4,36.3,29.84,ENE,68,0.0,9.0,79,0.00,,,0.01,0616,Weather View 32 v70,2013-04-13 14:00:00,
2013-04-13 10:05:00,42.8,35.1,29.84,North,0,7.0,20.0,74,0.00,,,0.01,0824,Weather View 32 v70,2013-04-13 14:05:00,
2013-04-13 10:10:00,43.1,36.3,29.84,NNW,338,0.0,20.0,77,0.00,,,0.01,0824,Weather View 32 v70,2013-04-13 14:10:00,
2013-04-13 10:15:00,43.4,35.3,29.84,North,0,4.0,20.0,73,0.00,,,0.01,0536,Weather View 32 v70,2013-04-13 14:15:00,
2013-04-13 10:25:00,44.5,35.7,29.85,NNW,338,1.0,20.0,71,0.00,,,0.01,0456,Weather View 32 v70,2013-04-13 14:25:00,
2013-04-13 10:35:00,44.4,35.2,29.85,WSW,248,5.0,20.0,70,0.00,,,0.01,0376,Weather View 32 v70,2013-04-13 14:35:00,
2013-04-13 10:45:00,45.1,36.2,29.85,NNW,338,2.0,20.0,71,0.00,,,0.01,0456,Weather View 32 v70,2013-04-13 14:45:00,
2013-04-13 10:55:00,46.0,35.6,29.84,NW,315,0.0,20.0,67,0.00,,,0.01,0856,Weather View 32 v70,2013-04-13 14:55:00,
2013-04-13 11:00:00,46.1,35.7,29.84,North,0,5.0,20.0,67,0.00,,,0.01,0400,Weather View 32 v70,2013-04-13 15:00:00,
2013-04-13 11:05:00,46.5,36.2,29.85,NNW,338,0.0,9.0,67,0.00,,,0.01,0520,Weather View 32 v70,2013-04-13 15:05:00,
2013-04-13 11:10:00,46.8,35.6,29.85,NNE,23,0.0,7.0,65,0.00,,,0.01,0472,Weather View 32 v70,2013-04-13 15:10:00,
2013-04-13 11:20:00,47.2,35.6,29.85,NW,315,0.0,9.0,64,0.00,,,0.01,0464,Weather View 32 v70,2013-04-13 15:20:00,
2013-04-13 11:30:00,48.0,36.4,29.85,WNW,293,5.0,9.0,64,0.00,,,0.01,0520,Weather View 32 v70,2013-04-13 15:30:00,
2013-04-13 11:38:00,48.3,35.5,29.84,West,270,4.0,9.0,61,0.00,,,0.01,0752,Weather View 32 v70,2013-04-13 15:38:00,
2013-04-13 11:45:00,50.4,35.7,29.84,WSW,248,8.0,10.0,57,0.00,,,0.01,0752,Weather View 32 v70,2013-04-13 15:45:00,
2013-04-13 11:50:00,50.6,38.0,29.84,SSW,203,5.0,12.0,62,0.00,,,0.01,0824,Weather View 32 v70,2013-04-13 15:50:00,
2013-04-13 12:00:00,50.9,36.2,29.84,SSW,203,4.0,12.0,57,0.00,,,0.01,0888,Weather View 32 v70,2013-04-13 16:00:00,
2013-04-13 12:05:00,51.6,36.4,29.84,NNW,338,4.0,12.0,56,0.00,,,0.01,0536,Weather View 32 v70,2013-04-13 16:05:00,
2013-04-13 12:15:00,52.7,37.0,29.84,NW,315,2.0,12.0,55,0.00,,,0.01,0848,Weather View 32 v70,2013-04-13 16:15:00,
2013-04-13 12:20:00,52.6,35.5,29.84,WNW,293,5.0,12.0,52,0.00,,,0.01,0848,Weather View 32 v70,2013-04-13 16:20:00,
2013-04-13 12:30:00,53.1,35.9,29.84,WNW,293,2.0,15.0,52,0.00,,,0.01,0808,Weather View 32 v70,2013-04-13 16:30:00,
2013-04-13 12:35:00,53.2,36.9,29.84,NW,315,2.0,15.0,54,0.00,,,0.01,0784,Weather View 32 v70,2013-04-13 16:35:00,
2013-04-13 12:45:00,53.5,34.8,29.83,WNW,293,4.0,15.0,49,0.00,,,0.01,0672,Weather View 32 v70,2013-04-13 16:45:00,
2013-04-13 12:50:00,53.3,33.5,29.83,NNW,338,2.0,15.0,47,0.00,,,0.01,0616,Weather View 32 v70,2013-04-13 16:50:00,
2013-04-13 13:00:00,53.1,34.9,29.83,North,0,0.0,18.0,50,0.00,,,0.01,0288,Weather View 32 v70,2013-04-13 17:00:00,
2013-04-13 13:05:00,52.8,35.7,29.83,WNW,293,3.0,18.0,52,0.00,,,0.01,0936,Weather View 32 v70,2013-04-13 17:05:00,
2013-04-13 13:15:00,54.3,34.5,29.83,WNW,293,3.0,18.0,47,0.00,,,0.01,0752,Weather View 32 v70,2013-04-13 17:15:00,
2013-04-13 13:25:00,53.6,33.3,29.82,NW,315,2.0,18.0,46,0.00,,,0.01,0288,Weather View 32 v70,2013-04-13 17:25:00,
2013-04-13 13:35:00,53.2,32.9,29.82,WNW,293,4.0,18.0,46,0.00,,,0.01,0352,Weather View 32 v70,2013-04-13 17:35:00,
2013-04-13 13:40:00,53.1,32.8,29.82,SW,225,3.0,18.0,46,0.00,,,0.01,0312,Weather View 32 v70,2013-04-13 17:40:00,
2013-04-13 13:45:00,53.1,32.2,29.82,WNW,293,0.0,18.0,45,0.00,,,0.01,0248,Weather View 32 v70,2013-04-13 17:45:00,
2013-04-13 13:50:00,52.5,32.8,29.82,West,270,2.0,18.0,47,0.00,,,0.01,0296,Weather View 32 v70,2013-04-13 17:50:00,
2013-04-13 13:55:00,52.4,33.2,29.82,NNE,23,1.0,18.0,48,0.00,,,0.01,0336,Weather View 32 v70,2013-04-13 17:55:00,
2013-04-13 14:00:00,53.2,33.4,29.82,WNW,293,3.0,18.0,47,0.00,,,0.01,0376,Weather View 32 v70,2013-04-13 18:00:00,
2013-04-13 14:05:00,53.4,32.0,29.82,WNW,293,5.0,12.0,44,0.00,,,0.01,0304,Weather View 32 v70,2013-04-13 18:05:00,
2013-04-13 14:20:00,53.3,32.5,29.82,West,270,0.0,18.0,45,0.00,,,0.01,0392,Weather View 32 v70,2013-04-13 18:20:00,
2013-04-13 14:30:00,53.4,33.1,29.82,WSW,248,0.0,18.0,46,0.00,,,0.01,0336,Weather View 32 v70,2013-04-13 18:30:00,
2013-04-13 14:35:00,53.4,32.5,29.82,WNW,293,6.0,18.0,45,0.00,,,0.01,0296,Weather View 32 v70,2013-04-13 18:35:00,
2013-04-13 14:40:00,53.0,31.6,29.82,NNW,338,0.0,18.0,44,0.00,,,0.01,0264,Weather View 32 v70,2013-04-13 18:40:00,
2013-04-13 14:45:00,52.8,30.9,29.82,WNW,293,0.0,18.0,43,0.00,,,0.01,0256,Weather View 32 v70,2013-04-13 18:45:00,
2013-04-13 14:50:00,52.6,31.3,29.82,West,270,4.0,18.0,44,0.00,,,0.01,0248,Weather View 32 v70,2013-04-13 18:50:00,
2013-04-13 14:55:00,52.6,30.7,29.83,WSW,248,0.0,18.0,43,0.00,,,0.01,0264,Weather View 32 v70,2013-04-13 18:55:00,
2013-04-13 15:05:00,52.3,31.0,29.83,North,0,6.0,18.0,44,0.00,,,0.01,0216,Weather View 32 v70,2013-04-13 19:05:00,
2013-04-13 15:15:00,52.1,31.3,29.83,WNW,293,0.0,18.0,45,0.00,,,0.01,0392,Weather View 32 v70,2013-04-13 19:15:00,
2013-04-13 15:20:00,53.1,31.7,29.83,NW,315,2.0,12.0,44,0.00,,,0.01,0440,Weather View 32 v70,2013-04-13 19:20:00,
2013-04-13 15:30:00,54.3,31.1,29.82,NW,315,2.0,10.0,41,0.00,,,0.01,0696,Weather View 32 v70,2013-04-13 19:30:00,
2013-04-13 15:35:00,53.9,30.6,29.82,WSW,248,4.0,10.0,41,0.00,,,0.01,0176,Weather View 32 v70,2013-04-13 19:35:00,
2013-04-13 15:41:00,53.5,30.9,29.83,NW,315,0.0,9.0,42,0.00,,,0.01,0408,Weather View 32 v70,2013-04-13 19:41:00,
2013-04-13 15:50:00,54.9,31.0,29.83,NNW,338,0.0,9.0,40,0.00,,,0.01,0208,Weather View 32 v70,2013-04-13 19:50:00,
2013-04-13 15:55:00,54.1,32.0,29.83,WNW,293,0.0,9.0,43,0.00,,,0.01,0216,Weather View 32 v70,2013-04-13 19:55:00,
2013-04-13 16:00:00,53.4,31.4,29.83,West,270,0.0,9.0,43,0.00,,,0.01,0168,Weather View 32 v70,2013-04-13 20:00:00,
2013-04-13 16:05:00,53.7,30.6,29.83,North,0,3.0,9.0,41,0.00,,,0.01,0616,Weather View 32 v70,2013-04-13 20:05:00,
2013-04-13 16:10:00,54.9,31.6,29.83,NW,315,0.0,9.0,41,0.00,,,0.01,0552,Weather View 32 v70,2013-04-13 20:10:00,
2013-04-13 16:15:00,55.3,33.2,29.83,North,0,5.0,9.0,43,0.00,,,0.01,0560,Weather View 32 v70,2013-04-13 20:15:00,
2013-04-13 16:20:00,55.9,30.6,29.83,WNW,293,2.0,9.0,38,0.00,,,0.01,0560,Weather View 32 v70,2013-04-13 20:20:00,
2013-04-13 16:25:00,55.5,30.3,29.83,West,270,5.0,9.0,38,0.00,,,0.01,0224,Weather View 32 v70,2013-04-13 20:25:00,
2013-04-13 16:35:00,54.1,30.2,29.83,West,270,0.0,9.0,40,0.00,,,0.01,0432,Weather View 32 v70,2013-04-13 20:35:00,
2013-04-13 16:40:00,54.5,31.3,29.83,North,0,0.0,9.0,41,0.00,,,0.01,0200,Weather View 32 v70,2013-04-13 20:40:00,
2013-04-13 16:45:00,54.4,31.2,29.83,NNW,338,0.0,9.0,41,0.00,,,0.01,0536,Weather View 32 v70,2013-04-13 20:45:00,
2013-04-13 16:55:00,54.9,32.2,29.83,North,0,0.0,9.0,42,0.00,,,0.01,0144,Weather View 32 v70,2013-04-13 20:55:00,
2013-04-13 17:05:00,53.6,30.4,29.83,WNW,293,0.0,10.0,41,0.00,,,0.01,0112,Weather View 32 v70,2013-04-13 21:05:00,
2013-04-13 17:15:00,53.4,30.2,29.83,NW,315,0.0,10.0,41,0.00,,,0.01,0224,Weather View 32 v70,2013-04-13 21:15:00,
2013-04-13 17:25:00,53.2,30.0,29.83,NNW,338,0.0,10.0,41,0.00,,,0.01,0088,Weather View 32 v70,2013-04-13 21:25:00,
2013-04-13 17:35:00,53.3,30.7,29.83,NW,315,0.0,10.0,42,0.00,,,0.01,0216,Weather View 32 v70,2013-04-13 21:35:00,
2013-04-13 17:40:00,53.5,30.4,29.83,NW,315,2.0,10.0,41,0.00,,,0.01,0168,Weather View 32 v70,2013-04-13 21:40:00,
2013-04-13 17:50:00,53.3,30.1,29.84,WNW,293,0.0,10.0,41,0.00,,,0.01,0096,Weather View 32 v70,2013-04-13 21:50:00,
2013-04-13 17:55:00,53.0,29.2,29.84,West,270,7.0,10.0,40,0.00,,,0.01,0016,Weather View 32 v70,2013-04-13 21:55:00,
2013-04-13 18:00:00,52.6,30.1,29.85,WNW,293,5.0,10.0,42,0.00,,,0.01,0032,Weather View 32 v70,2013-04-13 22:00:00,
2013-04-13 18:10:00,52.3,30.4,29.86,NW,315,0.0,10.0,43,0.00,,,0.01,0032,Weather View 32 v70,2013-04-13 22:10:00,
2013-04-13 18:15:00,51.5,31.9,29.86,WNW,293,0.0,10.0,47,0.00,,,0.01,0032,Weather View 32 v70,2013-04-13 22:15:00,
2013-04-13 18:20:00,50.8,32.8,29.86,WSW,248,0.0,10.0,50,0.00,,,0.01,0064,Weather View 32 v70,2013-04-13 22:20:00,
2013-04-13 18:30:00,50.3,33.3,29.87,WSW,248,0.0,10.0,52,0.00,,,0.01,0032,Weather View 32 v70,2013-04-13 22:30:00,
2013-04-13 18:35:00,50.1,32.7,29.87,West,270,0.0,10.0,51,0.00,,,0.01,0024,Weather View 32 v70,2013-04-13 22:35:00,
2013-04-13 18:43:00,50.0,32.6,29.88,SSW,203,2.0,8.0,51,0.00,,,0.01,0048,Weather View 32 v70,2013-04-13 22:43:00,
2013-04-13 18:50:00,49.8,32.8,29.88,WSW,248,0.0,9.0,52,0.00,,,0.01,0016,Weather View 32 v70,2013-04-13 22:50:00,
2013-04-13 19:00:00,49.4,33.4,29.88,SE,135,0.0,9.0,54,0.00,,,0.01,0000,Weather View 32 v70,2013-04-13 23:00:00,
2013-04-13 19:10:00,48.9,33.9,29.87,WNW,293,0.0,9.0,56,0.00,,,0.01,0008,Weather View 32 v70,2013-04-13 23:10:00,
2013-04-13 19:20:00,48.1,33.6,29.87,West,270,0.0,9.0,57,0.00,,,0.01,0000,Weather View 32 v70,2013-04-13 23:20:00,
2013-04-13 19:25:00,47.8,33.7,29.87,WNW,293,0.0,9.0,58,0.00,,,0.01,0000,Weather View 32 v70,2013-04-13 23:25:00,
2013-04-13 19:30:00,47.3,33.7,29.88,WNW,293,0.0,9.0,59,0.00,,,0.01,0008,Weather View 32 v70,2013-04-13 23:30:00,
2013-04-13 19:40:00,46.5,34.6,29.86,WNW,293,0.0,9.0,63,0.00,,,0.01,0000,Weather View 32 v70,2013-04-13 23:40:00,
2013-04-13 19:50:00,45.6,33.8,29.88,WNW,293,0.0,6.0,63,0.00,,,0.01,0000,Weather View 32 v70,2013-04-13 23:50:00,
2013-04-13 19:55:00,45.4,33.1,29.88,WNW,293,0.0,6.0,62,0.00,,,0.01,0000,Weather View 32 v70,2013-04-13 23:55:00,
2013-04-13 20:05:00,45.0,32.7,29.89,West,270,0.0,1.0,62,0.00,,,0.01,0000,Weather View 32 v70,2013-04-14 00:05:00,
2013-04-13 20:15:00,44.9,32.6,29.89,WNW,293,0.0,1.0,62,0.00,,,0.01,0000,Weather View 32 v70,2013-04-14 00:15:00,
2013-04-13 20:20:00,44.9,33.0,29.89,NW,315,0.0,1.0,63,0.00,,,0.01,0000,Weather View 32 v70,2013-04-14 00:20:00,
2013-04-13 20:30:00,45.3,33.4,29.90,WNW,293,0.0,3.0,63,0.00,,,0.01,0008,Weather View 32 v70,2013-04-14 00:30:00,
2013-04-13 20:35:00,45.5,32.8,29.90,WSW,248,0.0,3.0,61,0.00,,,0.01,0016,Weather View 32 v70,2013-04-14 00:35:00,
2013-04-13 20:40:00,45.8,33.5,29.90,West,270,0.0,3.0,62,0.00,,,0.01,0000,Weather View 32 v70,2013-04-14 00:40:00,
2013-04-13 20:50:00,45.8,33.0,29.91,West,270,0.0,3.0,61,0.00,,,0.01,0000,Weather View 32 v70,2013-04-14 00:50:00,
2013-04-13 21:00:00,45.6,34.5,29.90,WNW,293,0.0,3.0,65,0.00,,,0.01,0000,Weather View 32 v70,2013-04-14 01:00:00,
2013-04-13 21:05:00,45.5,33.6,29.90,WNW,293,0.0,3.0,63,0.00,,,0.01,0000,Weather View 32 v70,2013-04-14 01:05:00,
2013-04-13 21:10:00,45.4,34.3,29.91,WNW,293,0.0,3.0,65,0.00,,,0.01,0000,Weather View 32 v70,2013-04-14 01:10:00,
2013-04-13 21:20:00,44.6,34.3,29.91,WSW,248,0.0,3.0,67,0.00,,,0.01,0000,Weather View 32 v70,2013-04-14 01:20:00,
2013-04-13 21:25:00,44.4,34.1,29.91,WNW,293,0.0,3.0,67,0.00,,,0.01,0000,Weather View 32 v70,2013-04-14 01:25:00,
2013-04-13 21:30:00,44.0,34.4,29.93,WNW,293,0.0,3.0,69,0.00,,,0.01,0000,Weather View 32 v70,2013-04-14 01:30:00,
2013-04-13 21:40:00,43.5,33.6,29.93,WNW,293,0.0,0.0,68,0.00,,,0.01,0000,Weather View 32 v70,2013-04-14 01:40:00,
2013-04-13 21:45:00,43.3,33.0,29.93,WNW,293,0.0,1.0,67,0.00,,,0.01,0000,Weather View 32 v70,2013-04-14 01:45:00,
2013-04-13 21:55:00,43.1,32.8,29.93,WNW,293,0.0,2.0,67,0.00,,,0.01,0000,Weather View 32 v70,2013-04-14 01:55:00,
2013-04-13 22:00:00,43.2,32.9,29.93,West,270,0.0,2.0,67,0.00,,,0.01,0000,Weather View 32 v70,2013-04-14 02:00:00,
2013-04-13 22:05:00,43.1,33.2,29.93,West,270,0.0,2.0,68,0.00,,,0.01,0000,Weather View 32 v70,2013-04-14 02:05:00,
2013-04-13 22:15:00,42.7,34.0,29.93,WNW,293,0.0,2.0,71,0.00,,,0.01,0000,Weather View 32 v70,2013-04-14 02:15:00,
2013-04-13 22:25:00,42.5,34.1,29.94,WNW,293,0.0,2.0,72,0.00,,,0.01,0000,Weather View 32 v70,2013-04-14 02:25:00,
2013-04-13 22:30:00,42.5,34.4,29.94,West,270,0.0,2.0,73,0.00,,,0.01,0000,Weather View 32 v70,2013-04-14 02:30:00,
2013-04-13 22:35:00,42.4,34.7,29.94,SW,225,0.0,2.0,74,0.00,,,0.01,0000,Weather View 32 v70,2013-04-14 02:35:00,
2013-04-13 22:45:00,42.5,34.8,29.94,WSW,248,0.0,2.0,74,0.00,,,0.01,0000,Weather View 32 v70,2013-04-14 02:45:00,
2013-04-13 22:50:00,42.6,34.9,29.94,WSW,248,0.0,2.0,74,0.00,,,0.01,0016,Weather View 32 v70,2013-04-14 02:50:00,
2013-04-13 23:00:00,42.5,34.8,29.94,WSW,248,0.0,2.0,74,0.00,,,0.01,0008,Weather View 32 v70,2013-04-14 03:00:00,
2013-04-13 23:05:00,42.5,34.8,29.94,WSW,248,0.0,4.0,74,0.00,,,0.01,0000,Weather View 32 v70,2013-04-14 03:05:00,
2013-04-13 23:15:00,42.2,35.1,29.95,WSW,248,0.0,4.0,76,0.00,,,0.01,0000,Weather View 32 v70,2013-04-14 03:15:00,
2013-04-13 23:20:00,42.2,35.1,29.95,SW,225,0.0,4.0,76,0.00,,,0.01,0000,Weather View 32 v70,2013-04-14 03:20:00,
2013-04-13 23:30:00,42.0,35.3,29.94,WSW,248,0.0,4.0,77,0.00,,,0.01,0000,Weather View 32 v70,2013-04-14 03:30:00,
2013-04-13 23:35:00,41.8,35.1,29.95,West,270,0.0,4.0,77,0.00,,,0.01,0000,Weather View 32 v70,2013-04-14 03:35:00,
2013-04-13 23:40:00,41.5,35.1,29.95,WSW,248,0.0,4.0,78,0.00,,,0.01,0000,Weather View 32 v70,2013-04-14 03:40:00,
2013-04-13 23:46:00,41.3,34.9,29.95,WSW,248,0.0,4.0,78,0.00,,,0.01,0000,Weather View 32 v70,2013-04-14 03:46:00,
2013-04-13 23:55:00,41.0,35.3,29.94,WNW,293,0.0,4.0,80,0.00,,,0.01,0008,Weather View 32 v70,2013-04-14 03:55:00,